This is the latest recevied weather packets stored in our database for station/object K1ZK-13. If no packets are shown the sender has not sent any weather packets the latest 10 day(s).
| Time | Temp. | Humidity | Pressure | Rain* | Wind** | Luminosity | Snow |
|---|---|---|---|---|---|---|---|
| 1778093691 | 6.67° C | 99% | 1008.5 hPa | 1.78 mm | - | 95 W/m² | - |
| 1778093383 | 6.11° C | 99% | 1008.3 hPa | 1.78 mm | - | 88 W/m² | - |
| 1778093080 | 6.11° C | 99% | 1008.5 hPa | 0 mm | - | 91 W/m² | - |
| 1778092777 | 6.67° C | 99% | 1008.7 hPa | 1.27 mm | - | 118 W/m² | - |
| 1778092472 | 6.11° C | 99% | 1008.5 hPa | 1.27 mm | - | 101 W/m² | - |
| 1778092170 | 6.11° C | 99% | 1008.7 hPa | 0 mm | - | 73 W/m² | - |
| 1778091867 | 6.11° C | 99% | 1008.8 hPa | 0 mm | - | 73 W/m² | - |
| 1778091564 | 6.11° C | 99% | 1009 hPa | 0 mm | - | 72 W/m² | - |
| 1778091262 | 6.67° C | 99% | 1008.9 hPa | 0 mm | - | 75 W/m² | - |
| 1778090959 | 6.11° C | 99% | 1009 hPa | 0 mm | - | 88 W/m² | - |
| 1778090655 | 6.67° C | 99% | 1009.1 hPa | 1.78 mm | - | 76 W/m² | - |
| 1778090352 | 6.11° C | 99% | 1009 hPa | 1.78 mm | - | 90 W/m² | - |
| 1778090049 | 6.11° C | 99% | 1009.1 hPa | 0 mm | - | 100 W/m² | - |
| 1778089745 | 6.11° C | 99% | 1009.3 hPa | 1.27 mm | - | 107 W/m² | - |
| 1778089443 | 6.11° C | 99% | 1009.3 hPa | 1.27 mm | - | 77 W/m² | - |
| 1778089140 | 6.11° C | 99% | 1009.2 hPa | 0 mm | - | 68 W/m² | - |
| 1778088837 | 6.11° C | 99% | 1009.5 hPa | 0 mm | - | 76 W/m² | - |
| 1778088534 | 6.11° C | 99% | 1009.4 hPa | 1.78 mm | - | 106 W/m² | - |
| 1778088230 | 6.11° C | 99% | 1009.3 hPa | 3.56 mm | - | 91 W/m² | - |
| 1778087928 | 6.11° C | 99% | 1009.4 hPa | 3.05 mm | - | 108 W/m² | - |
| 1778087624 | 5.56° C | 99% | 1009.6 hPa | 1.27 mm | - | 61 W/m² | - |
| 1778087322 | 5.56° C | 99% | 1009.4 hPa | 1.27 mm | - | 99 W/m² | - |
| 1778087018 | 6.11° C | 99% | 1009.5 hPa | 1.78 mm | - | 47 W/m² | - |
| 1778086711 | 5.56° C | 99% | 1009.3 hPa | 1.78 mm | - | 76 W/m² | - |
| 1778086409 | 6.11° C | 99% | 1009.4 hPa | 0 mm | - | 103 W/m² | - |
* Rain latest hour (hover to see other rain measurements)
** Current wind speed in m/s (hover to see current wind gust speed)